Location: Casilda
(33.0440°S, 61.1680°W)
Time: 20:33:21
(UTC-03:00)

Envisat - Visible Passes

Search period start: 14 November 2018 00:00
Search period end: 24 November 2018 00:00
Orbit: 764 x 766 km, 98.2° (Epoch: 14 November)

Date Brightness Start Highest point End Pass type
(mag) Time Alt. Az. Time Alt. Az. Time Alt. Az.
14 Nov 3.7 21:07:17 10° S 21:12:19 57° WSW 21:17:18 10° NNW visible
15 Nov 3.1 20:30:33 10° SSE 20:35:38 59° E 20:40:39 10° N visible
15 Nov 5.9 22:11:35 10° SW 22:14:04 14° WSW 22:16:33 10° W visible
16 Nov 4.8 21:33:14 10° S 21:37:43 31° WSW 21:42:10 10° NW visible
17 Nov 3.2 20:56:02 10° S 21:01:10 74° WSW 21:06:15 10° NNW visible
18 Nov 3.3 20:19:29 10° SSE 20:24:26 45° E 20:29:18 10° N visible
18 Nov 5.7 21:59:42 10° SSW 22:03:01 18° WSW 22:06:19 10° WNW visible
19 Nov 4.4 21:21:50 10° S 21:26:36 40° WSW 21:31:20 10° NW visible
20 Nov 3.0 20:44:50 10° SSE 20:50:00 85° ENE 20:55:06 10° NNW visible
21 Nov 3.6 20:08:31 10° SSE 20:13:12 35° E 20:17:49 10° NNE visible
21 Nov 5.4 21:48:02 10° SSW 21:51:57 22° WSW 21:55:50 10° WNW visible
22 Nov 3.9 21:10:30 10° S 21:15:28 51° WSW 21:20:24 10° NNW visible
23 Nov 3.0 20:33:41 10° SSE 20:38:49 66° E 20:43:52 10° N visible
23 Nov 6.0 22:15:11 10° SW 22:17:11 12° WSW 22:19:11 10° W visible
